Weather in Pervomayskaya

Russia / Chechen Republic     43°24′01″N   45°31′33″E
temp.,
°C
wind,
m/s
gust,
m/s
humid.,
%
clouds,
%
prec.,
mm/h
press.,
hPa
HPBL,
m
8 march, mon
mon800:00−1ese364854 0.0 1022206
03:00−2e246337 0.0 1022186
06:00−2nne116447 0.0 102233
09:00+1ne225325 0.0 1020444
12:00+5ene454790 0.0 10181086
15:00+6ene334795 0.0 10171351
18:00+4ne3363100 0.0 1017651
21:00+2ese2388100 0.0 1019218
9 march, tue
tue900:00+2se1294100 0.1 1018127
03:00+1se1292100 0.1 1018119
06:00+1ssw119189 0.0 101722
09:00+4nw226675 0.0 1017519
12:00+7ne21452 0.0 10161395
15:00+8ene114134 0.0 10151489
18:00+6ne12475 0.0 1017113
21:00+5sw115112 0.0 102023
10 march, wed
wed1000:00+2nw258790 0.1 1021332
03:00+2nw349095 0.2 1022371
06:00+1w2394100 0.1 1023247
09:00+1nw1294100 0.7 1024154
12:00+5wnw3449100 0.3 10221170
15:00+6n334183 0.3 10211550
18:00+5nne2348100 0.0 1021328
21:00+3ene5650100 0.0 1022942
11 march, thu
thu1100:00+1e5960100 0.0 1020741
03:00−1ene5889100 0.1 1019573
06:00−2ne61096100 2.0 1019613
09:00−2ne71195100 4.9 1019686
12:00−2ne81195100 2.4 1019805
15:00−4ne71095100 5.0 1020722
18:00−5ne6996100 2.1 1023581
21:00−6ne4796100 3.6 1025515
12 march, fri
fri1200:00−7ne2596100 1.3 1025398
03:00−7n1297100 2.3 1027167
06:00−7nne3596100 1.1 1029323
09:00−7ene4593100 1.6 1030501
12:00−5ene4482100 0.1 1028653
15:00−4ene458398 0.1 1028728
18:00−8e238881 0.0 102923
21:00−11e349242 0.0 103157